Location: Moscow
(55.7500°N, 37.5830°E)
Time: 10:20:04
(UTC+03:00)

Explorer 7 - Pass Details

Date: 09 December 2021
Orbit: 483 x 674 km, 50.3° (Epoch: 19 January)

Event Time Altitude Azimuth Distance (km) Brightness Sun altitude
Rises 08:36:48 0° 270° (W) 2,761 9.9 -1.9°
Reaches altitude 10° 08:39:19 10° 259° (W) 1,827 9.1 -1.6°
Maximum altitude 08:42:53 28° 200° (SSW) 1,006 8.5 -1.2°
Drops below altitude 10° 08:46:18 10° 140° (SE) 1,733 11.5 -0.9°
Sets 08:48:37 0° 128° (SE) 2,592 13.6 -0.6°
